Location: Neu-Ulm
(48.3873°N, 10.0192°E)
Time: 00:17:10
(UTC+01:00)

ISS - Pass Details

Date: 11 November 2017
Orbit: 402 x 407 km, 51.6° (Epoch: 19 November)

Event Time Altitude Azimuth Distance (km) Brightness Sun altitude
Exits shadow 06:42:44 - 290° (WNW) 1,536 -1.6 -6.8°
Reaches altitude 10° 06:42:55 10° 290° (WNW) 1,458 -1.7 -6.7°
Maximum altitude 06:46:10 72° 206° (SSW) 426 -3.7 -6.2°
Drops below altitude 10° 06:49:25 10° 121° (ESE) 1,452 0.7 -5.7°
Sets 06:51:29 0° 120° (ESE) 2,309 2.3 -5.4°
